Weather in Utsunomiya

Japan     36°33′37″N   139°52′51″E
temp.,
°C
wind,
m/s
gust,
m/s
humid.,
%
clouds,
%
prec.,
mm/h
press.,
hPa
HPBL,
m
13 may, thu
thu1300:00+15ese1269100 0.0 102149
03:00+14e1173100 0.0 102045
06:00+15ene1171100 0.0 102093
09:00+17ssw136699 0.0 1019676
12:00+18se2370100 0.0 1017666
15:00+18ese2271100 0.1 1016621
18:00+17ene2283100 0.0 1015248
21:00+16ene1290100 0.1 1015175
14 may, fri
fri1400:00+16ne129386 0.0 1014121
03:00+15ne129295 0.0 101375
06:00+16nne128568 0.0 1013123
09:00+22n12570 0.0 1013834
12:00+27wnw12420 0.0 10111245
15:00+27ese434337 0.0 10101330
18:00+21e4664100 0.2 1013360
21:00+20e2366100 0.2 1016284
15 may, sat
sat1500:00+18ese2473100 0.0 1017235
03:00+17ese2381100 0.0 1017184
06:00+18ese1279100 0.0 1018181
09:00+19sse2372100 0.0 1019597
12:00+20sse2466100 0.0 1018819
15:00+20ese1266100 0.0 1016437
18:00+19ese2773100 0.0 1016369
21:00+19s3777100 0.0 1017704
16 may, sun
sun1600:00+18s3883100 0.1 1015787
03:00+18s4984100 0.1 1014885
06:00+18s498489 0.1 1014866
09:00+20s5974100 0.4 10141132
12:00+20s4972100 0.1 10131096
15:00+19s3880100 0.2 1011892
18:00+18ene1294100 1.4 1010167
21:00+17ne1196100 2.3 100889
17 may, mon
mon1700:00+18sw1198100 0.2 100680
03:00+17ssw2599100 0.2 1003240
06:00+18s2597100 0.0 1003247
09:00+21ssw3583100 0.0 1002325
12:00+28ssw4751100 0.0 1000666
15:00+31ssw41141100 0.0 9981676
18:00+26n46675 0.0 1000246
21:00+23ne4980100 0.0 1003427